This demonstration page uses our WeatherBlox Daily Observations layout. Learn more.

Left ArrowRight Arrow

34.02893, -84.19858

Hourly Observations for October 18, 2019

Temp ( °F °C ) Dew Point ( °F °C ) Humidity (%) Winds ( mph kmh ) Pressure ( in mb ) Visibility ( mi km ) Precip ( " mm )
12:53 am 00:53 Clear 46 7.8 39 3.9 77 77 Calm 29.98 1015 10 16 0.00 0.00
1:53 am 01:53 Clear 45 7.2 38 3.3 77 77 Calm 29.97 1015 10 16 0.00 0.00
2:53 am 02:53 Clear 43 6.1 39 3.9 86 86 Calm 29.98 1015 10 16 0.00 0.00
3:53 am 03:53 Clear 42 5.6 39 3.9 89 89 Calm 29.97 1015 10 16 0.00 0.00
4:53 am 04:53 Clear 41 5 38 3.3 89 89 Calm 29.98 1015 10 16 0.00 0.00
5:53 am 05:53 Clear 41 5 39 3.9 93 93 Calm 29.98 1015 10 16 0.00 0.00
6:53 am 06:53 Clear 40 4.4 38 3.3 93 93 Calm 30.00 1016 10 16 0.00 0.00
7:53 am 07:53 Sunny 41 5 38 3.3 89 89 Calm 30.01 1016 10 16 0.00 0.00
8:53 am 08:53 Sunny 49 9.4 41 5 74 74 ENE 5 7 30.03 1017 10 16 0.00 0.00
9:53 am 09:53 Sunny 51 10.6 40 4.4 66 66 undefined N/A 30.06 1018 10 16 0.00 0.00
10:53 am 10:53 Sunny 56 13.3 40 4.4 55 55 undefined N/A 30.05 1018 10 16 0.00 0.00
11:53 am 11:53 Sunny 61 16.1 40 4.4 46 46 VRB 5 7 30.04 1017 10 16 0.00 0.00
12:53 pm 12:53 Sunny 63 17.2 41 5 45 45 SSE 7 11 30.04 1017 10 16 0.00 0.00
1:53 pm 13:53 Sunny 64 17.8 41 5 43 43 SE 5 7 30.01 1016 10 16 0.00 0.00
2:53 pm 14:53 Sunny 65 18.3 42 5.6 43 43 VRB 3 6 29.98 1015 10 16 0.00 0.00
3:53 pm 15:53 Sunny 65 18.3 42 5.6 43 43 E 5 7 29.98 1015 10 16 0.00 0.00
4:53 pm 16:53 Sunny 65 18.3 43 6.1 45 45 VRB 5 7 29.98 1015 10 16 0.00 0.00
5:53 pm 17:53 Sunny 65 18.3 43 6.1 45 45 VRB 3 6 29.99 1016 10 16 0.00 0.00
6:53 pm 18:53 Sunny 61 16.1 43 6.1 52 52 E 3 6 29.97 1015 10 16 0.00 0.00
7:53 pm 19:53 Clear 60 15.6 44 6.7 56 56 ENE 3 6 29.98 1015 10 16 0.00 0.00
8:53 pm 20:53 Clear 60 15.6 44 6.7 56 56 VRB 3 6 29.95 1014 10 16 0.00 0.00
9:53 pm 21:53 Clear 58 14.4 45 7.2 62 62 E 6 9 29.96 1015 10 16 0.00 0.00
10:53 pm 22:53 Clear 57 13.9 45 7.2 64 64 E 5 7 29.97 1015 10 16 0.00 0.00
11:53 pm 23:53 Clear 57 13.9 44 6.7 62 62 E 3 6 29.97 1015 10 16 0.00 0.00

Powered by AerisWeather